Find Local Weather

World > North America > United States > Montana

Fort Benton, Montana Regional Weather

Lat: 47.83N, Lon: 110.66W
Wx Zone: MTZ013
Feedback
Expires:201808220200;;433443
ASUS45 KTFX 220110
RWRMT 
MONTANA REGIONAL WEATHER ROUNDUP
NATIONAL WEATHER SERVICE GREAT FALLS MT
700 PM MDT TUE AUG 21 2018

NOTE: "FAIR" INDICATES FEW OR NO CLOUDS BELOW 12000 FEET WITH NO
SIGNIFICANT WEATHER AND/OR OBSTRUCTIONS TO VISIBILITY.


MTZ011-013-016-021-045-047-050-051-220200-
NORTH CENTRAL MONTANA
  
CITY           SKY/WX    TMP DP  RH WIND       PRES   REMARKS
HAVRE          FAIR      73  43  33 VRB7      30.18S                  
LEWISTOWN      CLOUDY    59  49  69 E6        30.26                   
N BAR RANCH    CLOUDY    55  48  76 S5        30.30S                  
CHINOOK          N/A     72  45  37 SE7       30.18F                  
DENTON         FAIR      66  49  55 S8        30.20F                  
GEYSER         FAIR      62  47  56 SE8       30.24S                  
GRASS RANGE    FAIR      59  47  66 E7        30.24S                  
JUDITH GAP     CLOUDY    53  48  83 S9        30.29S                  
ROY            FAIR      64  48  56 S9        30.24S                  
STANFORD       FAIR      59  47  64 SE8       30.26S                  
WINIFRED       FAIR      63  46  54 E7        30.23F                  
$$


SKY/WX - Weather  TMP - Temperature  DP - Dewpoint  RH - Relative Humidity
WIND - Wind Direction/Speed PRES - Barometric Pressure